This is the latest recevied weather packets stored in our database for station/object RODN. If no packets are shown the sender has not sent any weather packets the latest 1 day(s).
| Time | Temp. | Humidity | Pressure | Rain* | Wind** | Luminosity | Snow |
|---|---|---|---|---|---|---|---|
| 1778105629 | 18.89° C | 100% | 1013.5 hPa | - | - | - | - |
| 1778105032 | 15.56° C | 93% | 1012.9 hPa | - | - | - | - |
| 1778104433 | 15.56° C | 93% | 1012.9 hPa | - | - | - | - |
| 1778103229 | 15.56° C | 93% | 1012.9 hPa | - | - | - | - |
| 1778102027 | 15.56° C | 93% | 1012.9 hPa | - | - | - | - |
| 1778101431 | 16.67° C | 93% | 1012.5 hPa | - | - | - | - |
| 1778100227 | 16.67° C | 93% | 1012.5 hPa | - | - | - | - |
| 1778099628 | 16.67° C | 93% | 1012.5 hPa | - | - | - | - |
| 1778098426 | 16.67° C | 93% | 1012.5 hPa | - | - | - | - |
| 1778096027 | 17.78° C | 93% | 1012.5 hPa | - | - | - | - |
| 1778091831 | 16.67° C | 93% | 1013.2 hPa | - | - | - | - |
| 1778090752 | 17.78° C | 93% | 1013.5 hPa | - | - | - | - |
| 1778090027 | 17.78° C | 93% | 1013.5 hPa | - | - | - | - |
| 1778089428 | 17.78° C | 93% | 1013.5 hPa | - | - | - | - |
| 1778088831 | 17.78° C | 93% | 1013.5 hPa | - | - | - | - |
| 1778087030 | 17.78° C | 93% | 1013.5 hPa | - | - | - | - |
| 1778084630 | 17.78° C | 93% | 1013.9 hPa | - | - | - | - |
| 1778084030 | 17.78° C | 93% | 1013.9 hPa | - | - | - | - |
| 1778082228 | 20° C | 93% | 1014.6 hPa | - | - | - | - |
| 1778081629 | 20° C | 93% | 1014.6 hPa | - | - | - | - |
| 1778081030 | 20° C | 93% | 1014.6 hPa | - | - | - | - |
| 1778079830 | 17.78° C | 93% | 1014.6 hPa | - | - | - | - |
| 1778078629 | 17.78° C | 93% | 1014.6 hPa | - | - | - | - |
| 1778078029 | 17.78° C | 93% | 1014.6 hPa | - | - | - | - |
| 1778077425 | 17.78° C | 93% | 1014.6 hPa | - | - | - | - |
* Rain since midnight (hover to see other rain measurements)
** Current wind speed in m/s (hover to see current wind gust speed)